MMS 1

Last updated on Sun Jun 21 2026 00:02:59 GMT+0000 (Coordinated Universal Time)

1 40482U 15011A 26171.50003471 -.00000547 00000+0 00000+0 0 9998 2 40482 72.1541 348.7586 8320937 167.4629 276.5732 0.28304487 1399
UTC large
Height (km)
Speed (km/s)
/
Latitude / Longitude
Inclination (degrees)
Orbital Period (minutes)
Azimuth
Elevation
Range (km)
Doppler Factor

Next 0 passes for location: London (51.5072 / 0.1276)

No passes found over London.
MMS 1